Yenbo Airport
OEYN : now visible

Airfield :











YOU CAN JOIN US ON...

 
LOGIN :

Register | Disclaimer

   EN    FR    IT 

 









Legend :    VFR   Marginal VFR   IFR   Intensive IFR   Very Intensive IFR
Visi :
Ceiling :
>= 8 km
>= 3000ft
5 to 8 km
1000 to 3000 ft
1500m to 5 km
500 to 1000 ft
800 to 1500m
200 to 500 ft
< 800m
< 200 ft
Symbols :   Thunderstorms  Fog  Heavy snow  Heavy precipitations  Wind > 20 kt






- Airport Elevation : 26 ft
- IATA code : YNB


OEYN - Yenbo

CURRENT METAR :
  • 250500Z 28010KT CAVOK 27/14 Q1007 NOSIG

EXPIRED METARs :
  • 250400Z 28011KT CAVOK 24/13 Q1006 NOSIG
  • 250300Z 27006KT CAVOK 23/11 Q1005 NOSIG

TAF TAF OEYN
Valid from the 25 at 00:00 until the 26 at 06:00 UTC


242300Z 2500/2606 34006KT 7000 NSC
BECMG 2506/2508 27017KT
PROB30
TEMPO 2510/2516 4000 BLDU
BECMG 2519/2521 VRB03KT CAVOK
OEJD FIR / Asia



MET'MAP, your aeronautical weather chart ! - Copyright ORBIFLY December 2007 - Disclaimer

ORBIFLY MET'MAP TEAM :

Programming & Development : Alexandra Zaïnal
Concept & original design : Baudouin d'Aumeries
Assistance for programming : Marc-Olivier Méhu
Technical & hardware support : Manuel Goepfert

Contact : metmap@orbifly.com




SOURCES & CREDITS :

   NOAA       Earth
Advisory